Preview of NWS' New Version of Forecast
This preview is not operational and should not be used for support decisions.

Regional Weather Roundup (RWR)

Issued by National Weather Service (NWS)

                            
000
ASUS45 KCYS 180610
RWRWY 

WYOMING REGIONAL WEATHER ROUNDUP
NATIONAL WEATHER SERVICE CHEYENNE WY
1100 PM MST SUN FEB 17 2019

NOTE:  "FAIR" INDICATES FEW OR NO CLOUDS BELOW 12,000 FEET
WITH NO SIGNIFICANT WEATHER AND/OR OBSTRUCTIONS TO VISIBILITY.

WYZ001-180700-
...YELLOWSTONE NATIONAL PARK...
  
CITY           SKY/WX    TMP DP  RH WIND       PRES   REMARKS
LK YELLOWSTONE   N/A     -8 -13  78 CALM      29.86R                  
6HR MIN TEMP:  -9; 6HR MAX TEMP:  16;                                

W YELLOWSTONE  NOT AVBL                                               

$$
WYZ002>013-054>058-071-098>099-180700-
...NORTHERN WYOMING...
  
CITY           SKY/WX    TMP DP  RH WIND       PRES   REMARKS
JACKSON        PTCLDY     7   3  84 N10       29.90R WCI  -8          
CODY           FLURRIES   3  -1  83 NE9       30.11S WCI -12          
GREYBULL       CLOUDY     3  -2  79 CALM      30.19R                  
6HR MIN TEMP:   3; 6HR MAX TEMP:  12;                                

WORLAND        CLOUDY     9   1  70 N5        30.17R WCI   1          
6HR MIN TEMP:   9; 6HR MAX TEMP:  15;                                

SHERIDAN       CLOUDY     1  -3  83 W5        30.25S WCI  -9          
6HR MIN TEMP:   1; 6HR MAX TEMP:   4;                                

BUFFALO        CLOUDY     0  -6  76 N8        30.12S WCI -14          
6HR MIN TEMP:   0; 6HR MAX TEMP:   4;                                

GILLETTE       CLOUDY    -3  -7  82 NW3       30.21R                  
6HR MIN TEMP:  -4; 6HR MAX TEMP:   2;                                

HULETT         LGT SNOW  -2  -8  78 MISG      30.22R                  
NEWCASTLE        N/A     -4  -9  77 N14       30.19S WCI -24          

$$
WYZ014>020-022>026-101>103-180700-
...CENTRAL WYOMING...
  
CITY           SKY/WX    TMP DP  RH WIND       PRES   REMARKS
BIG PINEY      PTCLDY   -12 -16  82 E3        29.89S                  
6HR MIN TEMP: -14; 6HR MAX TEMP:   8;                                

PINEDALE       PTCLDY   -15 -20  76 NW8       29.90S WCI -32          
DUBOIS         LGT SNOW   7   3  85 SE8       29.90R WCI  -6          
LANDER         LGT SNOW  11   7  84 N5        30.02S FOG     WCI   3  
6HR MIN TEMP:  11; 6HR MAX TEMP:  17; 6HR PCP: TRACE;                

RIVERTON       CLOUDY    11   5  77 E9        30.04S WCI  -2          
6HR MIN TEMP:  11; 6HR MAX TEMP:  17; 6HR PCP: TRACE;                

CASPER         CLOUDY     2  -4  76 NE10      30.12R WCI -14          
6HR MIN TEMP:   2; 6HR MAX TEMP:   8;                                

DOUGLAS        CLOUDY     2  -5  72 N8        30.16R WCI -12          
6HR MIN TEMP:   2; 6HR MAX TEMP:  10;                                


$$
WYZ021-027>030-104>119-180700-
...SOUTHERN WYOMING...
  
CITY           SKY/WX    TMP DP  RH WIND       PRES   REMARKS
EVANSTON       MOCLDY    10   4  76 NE13      29.80S WCI  -5          
6HR MIN TEMP:  10; 6HR MAX TEMP:  16; 6HR PCP: TRACE;                

KEMMERER       PTCLDY     9   3  78 N9G16     29.84  WCI  -5          
FORT BRIDGER   CLOUDY     7   6  94 SW10      29.87R WCI  -7          
ROCK SPRINGS   PTCLDY     8   4  83 E21       29.87R WCI -12          
6HR MIN TEMP:   8; 6HR MAX TEMP:  19;                                

DIXON          FAIR       7  -1  69 NE16      29.87F WCI -11          
RAWLINS        MOCLDY     6   2  83 NE14      29.92R WCI -11          
6HR MIN TEMP:   6; 6HR MAX TEMP:  22;                                

SARATOGA       FAIR       5   5 100 SW6       29.88S WCI  -6          
LARAMIE        MOCLDY     5   3  91 SE14      29.88R FOG     WCI -12  
6HR MIN TEMP:   3; 6HR MAX TEMP:  18; 6HR PCP: TRACE;                

CHEYENNE       CLOUDY     6   2  83 NE8       30.01R WCI  -7          
6HR MIN TEMP:   6; 6HR MAX TEMP:  12; 6HR PCP:  0.02;                

TORRINGTON     CLEAR      2  -5  72 N10       30.19R WCI -14          
6HR MIN TEMP:   1; 6HR MAX TEMP:  14;                                

PINE BLUFFS    CLOUDY     7   0  72 N8        30.09R WCI  -6          

$$